Theta_e
289 289 289 289 290 291 291 291 291 291 291 292 292 292 293 295 296 299 299 297 297 297 292 294 296 295 293 294 294 293 298 297 295 296 294 292 288 294 292 294 299 298 296 297 295 301 302 299 304 305 301 299 298 299
289 289 289 289 289 290 290 290 290 290 290 291 292 292 293 294 295 297 296 298 297 296 292 296 296 297 298 297 293 291 293 288 294 294 289 287 290 287 290 292 296 295 298 296 298 298 298 301 300 300 299 298 298 299
289 289 289 289 289 289 290 290 289 289 290 290 291 291 292 293 294 295 295 294 297 295 294 292 294 296 297 298 299 294 293 294 294 292 290 288 290 290 290 289 292 295 295 295 294 295 294 294 296 298 298 298 297 297
289 289 289 289 289 289 289 289 289 289 289 290 290 291 291 292 292 294 294 293 294 294 297 294 295 295 296 297 297 298 295 295 294 291 288 284 286 292 290 293 293 292 294 290 291 295 296 296 295 296 296 298 297 296
288 289 289 289 288 288 288 289 289 288 289 290 290 290 290 291 291 292 293 293 294 295 295 289 291 294 295 296 296 296 295 291 287 287 289 292 287 291 285 290 288 292 294 295 293 294 294 294 294 293 293 295 295 294
288 289 288 289 289 289 288 288 288 288 289 289 289 290 290 290 291 291 292 292 292 292 292 291 291 289 293 294 294 293 293 290 287 287 286 287 292 291 284 279 291 291 291 292 292 292 292 293 292 291 293 293 293 293
288 289 289 289 289 289 288 288 288 288 289 289 289 289 290 290 290 290 291 292 292 292 293 291 291 289 293 293 292 292 293 289 290 288 285 290 292 291 282 291 292 290 290 290 290 289 291 291 292 289 291 291 290 289
288 288 289 289 289 289 289 289 289 289 288 289 289 289 289 290 290 291 290 292 293 294 292 292 289 292 293 293 294 292 294 293 291 291 287 290 290 288 287 290 291 287 287 287 285 282 284 284 285 283 282 283 282 283
288 289 288 289 289 289 289 289 289 288 288 288 289 289 289 289 290 290 290 291 291 293 294 288 290 291 291 291 291 291 291 293 291 291 291 289 283 289 290 290 289 281 283 281 276 277 279 279 280 278 278 277 278 279
289 289 289 288 288 288 288 288 288 289 289 289 289 289 289 290 289 290 291 291 292 292 291 290 286 289 292 288 290 288 289 290 291 287 290 290 282 289 282 275 274 273 272 272 273 277 271 271 273 273 274 274 273 273
290 289 289 289 289 289 289 289 289 290 290 291 290 289 290 290 291 291 293 292 292 290 291 290 289 291 285 287 286 289 290 291 290 285 288 278 280 288 272 269 269 269 268 267 267 268 268 269 269 269 269 268 268 267
287 288 289 289 290 290 290 290 290 291 291 289 288 290 291 291 291 292 293 292 291 291 289 290 288 289 288 289 290 290 290 288 288 276 283 279 284 269 267 267 265 264 262 262 263 264 265 266 266 265 264 264 264 264
286 287 287 287 287 288 288 291 291 290 290 290 288 289 288 288 290 289 289 287 287 288 287 289 289 287 289 290 290 290 288 286 279 286 284 282 270 264 261 261 261 260 261 261 261 262 262 263 263 263 262 262 262 263
285 285 285 286 285 286 285 286 289 289 288 288 287 286 287 288 284 286 287 285 283 286 290 290 284 289 290 289 289 288 283 280 277 284 282 274 266 261 259 258 256 258 256 258 258 260 260 261 261 261 261 261 262 262
284 284 283 284 284 282 284 285 287 285 276 278 281 280 275 271 269 270 271 274 275 288 289 287 286 288 285 289 287 285 284 282 280 281 277 263 260 259 258 257 255 255 255 255 258 258 260 261 260 260 260 260 261 262
281 282 280 282 283 280 282 282 280 275 269 269 264 274 270 274 273 269 268 273 269 276 282 286 284 287 288 288 286 282 282 280 281 270 259 260 257 256 254 253 253 256 256 257 259 260 261 261 260 260 259 259 260 260
277 276 279 280 281 280 279 277 270 267 267 267 265 263 263 267 265 265 265 266 267 277 281 280 281 287 285 282 280 275 278 271 258 256 254 255 256 255 252 252 255 257 258 259 260 260 261 261 260 260 258 259 259 259
276 276 278 278 279 278 272 269 265 266 265 263 265 262 263 261 262 263 263 264 268 271 276 281 282 282 283 283 278 267 258 254 253 254 254 252 250 254 256 254 258 258 259 259 260 260 261 261 260 260 260 259 259 259
277 276 276 276 276 272 264 264 263 262 262 263 264 264 263 262 262 262 262 263 264 265 270 276 279 277 273 263 260 255 253 253 256 257 254 255 257 257 258 258 258 259 259 259 259 259 258 259 259 260 260 260 259 259
274 274 273 274 274 265 263 261 264 262 258 261 261 261 261 261 261 261 261 261 264 264 262 262 258 254 257 255 253 252 252 253 258 254 254 254 257 257 258 259 259 259 259 258 259 258 258 258 258 258 259 258 258 257
273 272 272 272 266 263 260 259 261 261 261 260 262 263 263 262 260 259 259 259 259 255 257 252 251 250 248 250 252 254 252 255 252 253 254 253 256 258 258 259 259 259 258 257 256 256 256 256 256 257 257 257 257 257
267 268 269 267 263 259 259 259 259 261 259 259 262 262 261 262 260 259 258 256 254 252 250 251 249 247 247 248 250 254 254 256 257 258 258 258 253 252 254 257 258 255 257 257 256 256 256 256 256 257 257 257 257 257
266 265 261 259 261 259 257 258 258 259 265 262 263 264 261 261 259 260 256 251 250 250 249 248 249 251 249 252 253 254 255 257 253 255 256 256 256 257 257 257 257 256 255 256 256 256 256 256 256 256 256 257 257 256
262 253 254 254 256 254 252 255 256 258 261 262 262 260 259 257 257 259 253 247 248 247 247 247 249 246 248 250 246 249 254 255 255 255 256 256 252 254 256 256 256 256 256 255 255 255 255 256 256 256 256 256 256 255
260 250 251 251 251 253 253 252 252 256 258 255 258 257 256 252 258 255 254 248 246 245 245 245 246 245 246 244 246 252 253 255 254 248 255 255 254 253 253 254 254 255 255 255 255 255 255 255 255 255 255 255 254 254
250 247 249 244 249 251 248 251 250 251 250 252 251 248 245 250 257 260 250 246 245 244 244 244 245 246 246 249 246 248 254 255 255 254 255 255 256 255 252 250 251 255 256 256 256 255 255 255 255 254 254 254 253 253
250 247 247 245 246 247 248 247 246 249 249 251 247 249 251 259 257 252 246 246 246 252 252 252 252 251 249 253 253 253 254 254 255 255 255 255 255 256 257 256 256 257 257 256 256 255 255 254 254 254 253 253 253 253
246 244 249 245 246 242 244 244 245 247 247 246 247 252 255 255 255 247 248 252 252 252 252 252 252 252 253 253 253 253 253 254 254 254 254 255 255 256 256 257 256 256 256 256 255 255 254 254 253 253 253 253 254 254
247 243 245 246 245 246 245 246 245 243 245 242 248 249 249 247 245 244 252 252 252 252 252 252 252 252 252 253 253 253 253 254 254 251 253 254 254 256 256 256 256 255 255 255 255 253 254 254 254 254 254 253 253 253
247 242 246 244 248 249 247 244 243 240 240 245 244 247 247 247 252 253 253 252 252 252 253 253 254 253 253 253 254 254 254 254 255 255 255 257 257 257 257 256 256 255 255 254 254 254 254 254 254 254 253 253 253 253
242 241 246 245 248 244 243 242 244 243 241 242 240 244 245 245 251 253 253 254 253 253 253 253 253 253 253 253 254 254 255 257 257 256 256 256 256 256 256 255 255 254 254 254 253 253 253 253 253 252 252 253 253 253
243 246 247 251 250 244 241 242 244 245 246 246 249 245 247 248 250 250 255 253 252 252 253 253 253 254 256 256 256 256 256 256 256 256 256 255 256 255 255 255 255 254 254 254 254 253 253 252 252 252 252 252 253 253
244 244 245 247 249 251 247 247 249 250 251 252 251 249 249 250 255 253 255 255 255 256 256 256 257 257 256 256 256 256 256 256 256 256 255 256 256 255 255 255 255 255 254 254 254 254 254 253 253 253 253 252 252 252
Wind_Speed
29 28 29 26 26 25 25 23 23 23 24 25 25 26 29 26 25 24 26 35 20 4 3 9 8 6 2 3 5 3 4 0 2 3 4 4 3 5 3 5 7 7 8 5 4 4 11 7 3 7 4 3 5 4
31 30 30 30 30 26 26 25 25 25 25 26 26 25 26 27 26 24 12 31 38 5 4 18 25 26 20 13 6 0 3 5 5 3 1 3 0 1 5 3 2 2 7 5 9 7 7 3 4 4 5 4 5 4
32 32 33 31 30 30 30 29 27 26 26 27 26 26 28 25 26 26 16 14 23 8 3 3 13 21 24 18 21 5 2 4 4 4 3 3 3 3 3 5 1 4 2 4 4 8 7 7 4 4 6 6 6 6
33 35 34 32 29 29 29 28 28 27 26 27 27 27 25 27 26 24 23 19 18 2 6 6 19 25 31 29 23 18 11 6 5 3 3 3 3 2 3 3 4 5 3 3 4 6 3 5 5 6 6 4 6 6
30 31 34 33 31 29 29 29 27 26 26 28 27 27 27 28 27 27 23 18 25 4 3 3 3 22 33 35 26 20 17 6 3 2 2 3 1 2 2 2 3 5 4 3 4 5 3 7 9 7 8 9 9 7
26 28 32 33 33 29 28 29 27 27 26 26 26 25 28 27 24 23 3 20 31 24 2 3 1 5 21 26 20 14 11 4 3 4 3 2 3 3 3 4 11 7 5 8 12 9 7 11 11 8 13 10 8 6
23 21 26 29 32 30 29 28 28 28 30 30 28 28 27 27 28 12 4 1 30 30 3 3 3 2 20 13 3 3 3 2 3 3 2 3 3 5 3 10 24 4 8 7 8 3 12 6 6 6 5 7 8 6
22 20 17 25 30 30 29 31 30 30 30 32 31 29 30 29 29 28 38 25 16 12 3 5 2 4 15 5 5 3 4 3 1 3 2 3 1 2 4 8 11 3 4 7 2 2 4 6 2 4 9 7 6 5
33 24 20 18 22 27 31 31 31 32 31 30 31 31 29 31 12 26 26 31 26 11 4 4 8 4 4 3 3 3 2 3 3 4 4 5 2 5 11 9 5 4 3 3 7 5 2 3 5 6 7 6 5 6
41 25 23 23 23 25 28 31 33 31 33 34 32 13 7 12 30 18 17 9 9 6 3 3 4 5 10 3 3 4 3 3 4 3 4 3 4 10 2 4 6 5 4 4 4 5 5 1 5 8 6 6 6 7
22 3 15 18 22 26 29 30 30 29 30 21 7 7 10 22 20 6 8 11 6 5 4 4 8 12 1 6 4 2 4 4 5 4 7 3 4 8 6 6 5 5 4 3 1 4 5 6 8 8 7 8 10 11
40 34 28 19 10 22 24 29 32 30 14 15 10 11 13 5 6 9 8 7 6 7 4 13 8 8 3 4 3 3 3 3 5 4 4 3 4 3 4 4 4 4 4 2 3 4 6 8 9 8 8 8 11 16
31 32 32 31 30 26 27 6 16 27 28 16 4 3 3 5 4 5 7 2 6 4 5 12 10 4 3 3 2 3 4 4 4 3 4 5 4 4 3 2 2 3 3 2 3 5 6 8 8 7 10 13 14 15
21 26 31 30 31 26 23 19 11 22 12 3 3 4 3 3 2 3 3 4 3 8 16 13 6 4 3 3 3 5 2 4 3 5 6 3 6 6 4 2 3 1 2 2 4 5 6 7 9 7 8 10 11 12
22 16 26 34 30 27 19 18 14 17 5 4 3 1 2 2 2 0 3 0 3 9 13 6 4 4 3 4 3 4 3 4 5 6 4 3 5 6 5 3 3 1 3 4 4 4 6 6 5 6 8 8 6 5
21 8 22 33 30 24 16 7 11 6 4 3 8 2 4 1 1 4 4 3 5 2 2 3 4 4 3 5 4 5 9 7 4 3 3 6 5 4 4 3 2 4 4 5 4 3 2 2 1 2 5 7 7 6
12 10 27 30 26 16 19 7 7 7 4 4 3 2 3 3 3 2 4 4 6 1 3 3 5 3 4 3 2 4 6 3 2 2 2 4 5 5 4 3 4 2 2 1 2 2 1 2 4 4 5 6 6 7
7 20 25 27 21 8 8 13 4 5 7 4 3 3 2 3 2 1 3 5 4 2 2 2 4 3 5 5 3 3 2 1 2 3 2 2 3 4 5 4 3 3 2 3 5 6 4 2 4 3 3 4 6 7
11 13 21 22 11 6 4 7 7 4 4 2 2 3 1 1 2 4 4 5 2 1 1 2 5 3 3 1 2 1 2 2 3 2 2 5 8 7 5 4 4 5 7 6 6 7 7 7 6 5 5 4 7 6
8 8 18 14 5 5 5 4 6 5 3 0 2 3 2 2 4 3 5 6 3 3 7 5 2 1 1 0 1 3 2 2 6 3 1 1 7 7 5 7 7 7 8 7 6 6 7 7 7 6 7 6 7 7
7 13 15 8 7 13 4 2 4 3 2 3 2 1 2 2 3 5 5 7 5 3 3 1 1 1 1 1 4 4 5 4 1 3 3 2 6 9 7 5 5 8 6 6 6 6 7 7 5 5 7 8 6 6
11 10 6 10 5 5 4 8 3 0 3 0 2 3 3 3 3 4 4 6 3 1 1 1 1 1 2 2 2 5 3 3 5 7 10 14 2 2 3 6 8 5 7 6 8 8 7 5 5 5 6 5 4 4
6 7 8 14 6 6 2 6 4 5 3 2 2 3 3 3 3 3 3 2 1 1 1 1 0 2 2 3 5 6 5 4 6 8 11 11 10 9 9 7 8 11 8 6 7 8 7 4 4 3 3 2 1 1
9 8 7 5 6 2 2 5 3 3 3 3 3 3 3 3 4 3 2 2 2 2 2 2 2 2 3 5 3 2 1 4 8 8 9 12 8 5 6 7 7 6 6 8 7 7 5 4 3 2 1 1 1 3
6 10 6 7 4 5 6 5 5 4 3 3 3 2 2 3 2 3 1 2 2 1 2 2 2 1 2 1 2 4 3 4 6 3 5 6 8 9 6 5 5 7 8 8 8 6 5 3 3 2 3 4 4 7
9 4 5 3 4 4 1 3 3 1 1 2 0 3 2 2 3 1 2 2 2 2 2 3 3 1 1 4 3 2 5 4 5 3 6 8 11 8 6 4 2 6 10 9 8 7 6 5 5 5 6 7 7 10
6 4 3 0 2 2 3 1 1 3 3 2 2 3 2 2 2 3 2 3 2 3 2 2 2 3 2 3 3 3 5 6 4 2 5 10 9 6 6 8 7 5 7 9 8 7 7 7 7 7 9 11 12 13
2 2 3 4 3 2 3 3 3 2 1 2 2 3 3 4 3 2 3 2 0 2 2 2 2 3 2 2 2 5 5 5 4 3 4 5 7 8 8 8 6 6 7 7 7 7 7 8 9 11 12 15 18 16
3 3 2 5 4 4 2 2 2 2 2 2 2 1 3 3 3 2 4 4 3 3 2 2 4 4 4 3 4 6 3 9 9 3 2 2 2 8 11 9 8 8 7 7 8 8 10 11 12 15 17 18 21 24
3 1 3 2 3 2 3 3 2 3 2 3 2 2 3 3 5 7 9 8 9 8 6 5 4 7 6 7 4 8 8 10 11 9 2 2 2 2 4 7 9 9 9 10 11 12 12 13 15 16 19 22 23 25
0 2 3 2 1 3 3 2 2 1 1 1 1 2 3 3 6 7 13 13 11 9 8 9 9 10 10 10 9 4 4 7 11 14 15 15 14 12 11 10 10 11 12 13 14 15 16 18 20 21 23 25 27 28
2 2 3 2 2 3 3 2 1 0 1 1 2 1 3 3 3 2 4 14 14 13 16 14 13 13 12 12 11 11 11 10 9 8 9 11 11 10 11 11 12 13 15 16 17 18 19 20 23 25 27 30 31 32
2 2 1 2 3 2 3 3 2 3 1 1 1 1 1 1 4 3 3 12 18 18 17 15 13 11 10 10 10 10 11 13 13 13 13 12 12 12 13 13 14 15 16 18 19 20 22 24 26 29 31 33 35 36
Wind_Direction
271 264 259 257 256 251 249 247 247 246 246 244 243 243 239 244 243 235 222 194 197 218 220 195 168 154 88 139 143 181 97 181 58 153 140 201 150 219 134 183 176 160 161 194 198 210 243 227 84 175 194 209 180 218
269 264 259 253 249 246 248 248 247 247 252 246 244 242 240 236 240 232 256 197 200 200 227 206 213 209 196 175 134 195 160 163 167 120 202 103 130 63 161 222 184 228 186 180 183 202 222 156 144 185 162 177 243 214
276 264 258 254 247 246 246 246 243 245 247 246 243 240 237 237 237 237 236 207 203 197 211 163 203 201 206 192 190 131 317 162 172 171 153 180 192 118 181 239 137 258 167 196 80 257 234 236 268 178 193 217 247 236
280 263 254 248 248 246 244 242 241 241 241 242 239 237 235 239 237 241 237 201 209 173 222 224 203 201 198 200 187 191 148 137 112 74 105 136 157 163 216 221 179 204 122 185 271 289 306 303 293 303 322 268 273 257
292 264 251 246 239 242 238 236 239 242 237 235 233 235 233 232 232 240 248 225 214 219 206 192 152 205 196 195 188 177 146 120 117 80 114 200 203 101 314 58 257 179 186 167 236 235 190 267 282 298 291 281 258 269
295 272 249 242 235 236 234 234 234 234 234 232 232 237 232 226 228 233 241 235 212 206 227 164 137 150 175 178 171 155 148 118 122 134 190 223 218 127 163 213 250 254 189 221 258 279 261 268 274 264 266 249 255 256
307 295 254 236 231 230 232 237 235 236 230 231 230 233 227 230 225 213 195 79 200 185 222 125 159 273 159 138 115 107 125 133 127 152 165 152 183 165 147 246 256 275 256 268 272 359 283 262 287 345 345 348 347 338
307 298 279 237 227 228 231 236 238 238 236 234 231 231 233 237 237 230 229 233 195 185 172 156 150 154 158 148 156 128 146 121 135 159 92 152 133 126 236 240 246 152 215 259 307 20 281 295 318 16 1 357 353 347
320 290 263 248 234 232 236 240 240 238 236 231 229 230 236 234 230 228 221 222 231 236 188 159 154 160 137 94 111 92 121 151 127 167 184 140 202 209 224 221 225 149 175 295 318 291 323 6 2 2 349 353 330 326
314 264 237 235 237 239 241 242 243 241 238 234 233 227 216 205 211 198 195 199 198 208 205 176 132 149 158 124 119 115 130 154 176 211 126 185 236 239 138 94 99 97 71 30 352 317 347 301 341 324 320 321 325 319
14 55 216 232 240 244 245 245 243 238 235 200 187 190 186 168 166 183 221 182 167 185 206 149 151 134 292 137 132 176 150 158 163 219 157 192 255 219 129 111 91 81 71 62 354 294 290 291 303 311 310 311 309 311
15 30 56 38 289 250 248 246 239 229 214 196 144 123 142 188 180 213 185 148 171 182 200 148 141 120 122 92 112 145 147 125 191 144 120 226 231 116 122 118 87 64 52 360 327 309 310 304 308 299 295 297 299 302
15 18 25 27 26 28 14 184 200 186 142 145 124 140 165 211 154 161 150 208 127 170 187 138 126 116 101 100 123 135 135 191 129 123 202 224 134 139 152 135 109 58 36 2 325 325 320 309 314 298 296 305 306 303
356 11 18 19 16 14 13 32 93 133 105 86 113 167 223 82 171 163 179 160 187 159 147 135 112 123 117 125 130 123 168 101 75 157 224 221 180 157 165 137 109 344 327 305 291 317 320 321 315 314 313 318 322 320
349 352 8 10 4 6 7 21 72 63 53 74 64 176 66 226 285 154 265 243 323 137 136 127 72 92 105 123 120 114 110 168 190 214 215 167 148 141 158 159 127 312 305 289 296 308 314 328 327 328 346 348 355 356
350 331 360 352 353 358 8 27 48 64 72 70 30 53 342 154 358 28 348 49 351 30 130 64 105 97 118 130 123 180 137 197 218 203 170 129 135 159 165 154 172 228 247 273 305 309 312 331 10 32 35 36 40 50
10 7 342 343 349 349 20 65 48 47 64 54 59 48 328 57 50 332 338 328 324 333 107 111 97 147 97 84 113 178 193 212 163 127 87 121 157 173 165 150 186 215 215 24 10 359 24 87 123 89 40 48 65 80
15 348 348 345 350 6 33 32 73 55 62 30 53 359 47 11 340 2 321 335 357 45 29 125 135 118 136 143 231 162 131 31 65 109 125 131 129 130 147 161 185 181 150 106 90 77 81 109 82 104 96 89 83 77
341 352 355 357 10 69 59 22 37 81 44 11 21 357 38 78 63 336 325 336 336 1 88 32 73 96 128 96 139 202 155 167 147 151 156 147 143 149 152 170 160 131 117 120 125 105 92 86 77 85 96 114 83 78
340 4 9 20 59 67 58 18 43 78 76 328 19 4 29 1 326 331 355 12 20 25 39 36 63 135 89 223 238 139 153 140 126 103 52 264 161 146 131 151 146 131 115 111 124 131 119 95 84 87 97 100 93 68
352 359 13 40 62 62 85 18 51 95 129 89 292 15 60 23 16 11 1 346 53 32 71 39 90 252 345 26 42 79 53 77 135 158 161 162 178 151 137 124 133 148 141 137 119 103 110 92 90 106 110 97 96 92
3 1 48 37 73 51 69 13 102 19 64 70 33 27 32 27 9 10 319 41 52 28 78 101 286 356 26 11 357 53 64 84 82 94 105 126 112 92 124 148 139 118 125 144 154 140 124 119 123 120 106 96 92 74
5 37 46 18 75 45 317 349 67 357 57 33 12 47 29 6 339 317 75 70 175 256 208 143 141 64 98 47 60 51 50 102 116 126 120 113 117 129 136 145 171 157 148 149 166 165 150 145 132 128 110 94 75 26
34 46 33 37 30 57 354 26 25 48 55 44 43 50 7 323 326 42 78 288 265 322 30 344 56 30 19 38 40 319 84 169 144 122 136 135 115 114 147 148 151 170 186 169 171 169 168 160 156 159 170 236 306 302
68 357 24 6 5 37 37 20 4 46 68 16 74 20 341 344 48 42 109 278 314 312 303 341 59 83 132 298 281 234 176 184 158 140 134 180 144 135 142 163 181 185 180 183 184 189 190 196 209 231 262 279 287 292
66 317 53 337 351 57 340 65 36 83 87 69 308 274 15 77 68 240 258 229 232 207 212 182 170 115 302 205 188 225 192 174 171 149 187 192 189 168 174 169 194 214 203 205 205 209 217 228 239 256 271 275 282 291
61 346 328 29 133 82 44 20 74 81 67 65 298 5 54 88 266 249 264 221 186 187 160 170 198 175 235 241 215 195 181 183 197 187 175 189 201 215 214 207 212 229 204 207 214 225 237 247 256 270 281 287 290 293
139 48 66 319 36 27 104 46 41 51 305 297 63 30 121 175 243 245 212 156 197 195 209 220 235 239 281 246 230 192 182 186 183 162 166 203 217 224 225 226 225 222 215 220 230 238 250 265 277 285 288 291 297 301
40 323 72 22 18 38 65 122 224 249 207 100 117 276 261 238 228 216 208 203 195 195 199 212 204 205 216 215 206 202 205 184 169 142 189 239 203 241 226 224 223 229 240 246 249 261 281 290 295 297 294 293 298 300
324 69 80 48 71 7 262 167 218 249 224 196 198 320 313 282 258 242 217 204 201 213 225 233 229 209 211 207 222 227 229 220 217 225 212 234 245 247 238 237 237 242 252 259 266 271 272 275 277 278 285 290 294 301
90 51 63 63 158 247 232 249 313 346 355 271 239 161 248 283 303 248 230 228 228 223 225 226 231 230 227 229 228 237 271 249 243 244 250 256 262 265 268 263 259 262 266 269 273 278 284 288 291 295 298 300 302 303
19 84 116 65 303 298 24 38 267 245 291 15 279 212 316 350 292 265 227 200 205 216 228 231 237 245 239 245 247 249 254 261 260 262 262 261 263 266 265 267 268 270 273 276 279 282 285 288 291 294 296 297 299 300
20 39 63 70 8 8 350 354 11 324 264 290 290 331 294 287 260 287 239 216 219 224 226 232 239 244 245 249 254 259 260 261 261 261 265 267 270 272 273 274 276 277 277 278 280 282 283 285 286 289 291 293 294 297